Location: Drocourt
(49.0571°N, 1.7669°E)
Time: 03:28:28
(UTC+00:00)

Transit 4A - Pass Details

Date: 16 April 2024
Orbit: 871 x 971 km, 66.8° (Epoch: 19 May)

Event Time Altitude Azimuth Distance (km) Brightness Sun altitude
Rises 18:06:19 0° 308° (NW) 3,491 12.2 5.7°
Reaches altitude 10° 18:10:19 10° 334° (NNW) 2,539 10.8 5.0°
Maximum altitude 18:13:09 14° 3° (N) 2,284 10.1 4.6°
Drops below altitude 10° 18:15:58 10° 33° (NNE) 2,530 10.0 4.1°
Sets 18:19:56 0° 59° (ENE) 3,468 10.4 3.5°
